Powrót do katalogu

COSMOS 2412

GLONASS

AktywnyNawigacjaMEO
NORAD 28510·PAYLOAD·🇷🇺 Russia

Wystrzelony Dec 26, 2004 z Baikonur Cosmodrome

Loading…

Następne Przeloty (najbliższe 24 godziny)

TLE

ŚwieżeSource: Space-Track

Epoka: Sep 14, 2026, 02:48 UTC

1 28510U 04053C   26257.11708360 -.00000030  00000-0  00000-0 0  9990
2 28510  64.2812  57.1903 0006241 235.9792 301.1144  2.13103174169019

Śledź COSMOS 2412 w czasie rzeczywistym z AllMySat

Download on the App Store